M I D A S
Marine Information and Data Acquisition System
Tripno 945 of the Zeeleeuw from 2005-04-13 06:34:00 to 2005-04-13 13:48:16
Back to CruiseResearch ActivitiesStationsMapUnderway DataData graphs

EquipmentUnitsComments
TimeDGPSUTC
LatitudeDGPSDM.mWGS84
LongitudeDGPSDM.mWGS84
SpeedMeteo Stationm/sRelative wind speed
DirectionMeteo StationdegRelative wind direction
TemperatureMeteo Stationdeg CelciusAir temperature
PressureMeteo StationPaAtmospheric pressure
HumidityMeteo Station%Relative humidity
Missing or incorrect values are displayed as -999
Metereological data collected by the RV Zeeleeuw from 2005-04-13 06:30:56 to 2005-04-13 13:59:09
                                                                                    Next 1000 lines
Time Latitude Longitude Speed Direction Temperature Pressure Humidity
2005-04-13 06:31:07 51°13.596 2°56.1 3.9 95 9.4 101140 96
2005-04-13 06:31:11 51°13.596 2°56.1 4.8 93 9.4 101140 96
2005-04-13 06:31:17 51°13.595 2°56.1 4.3 105 9.4 101140 96
2005-04-13 06:31:22 51°13.595 2°56.1 4.3 114 9.4 101140 96
2005-04-13 06:31:26 51°13.595 2°56.1 4.1 110 9.5 101140 96
2005-04-13 06:31:32 51°13.595 2°56.1 3.7 99 9.5 101140 96
2005-04-13 06:31:37 51°13.595 2°56.099 3.5 93 9.4 101140 96
2005-04-13 06:31:41 51°13.595 2°56.099 3.9 85 9.4 101140 96
2005-04-13 06:31:47 51°13.595 2°56.099 2.9 78 9.4 101140 96
2005-04-13 06:31:52 51°13.594 2°56.099 2.3 77 9.4 101140 96
2005-04-13 06:31:57 51°13.594 2°56.099 2 74 9.4 101140 96
2005-04-13 06:32:01 51°13.594 2°56.098 1.5 93 9.4 101140 96
2005-04-13 06:32:07 51°13.594 2°56.098 1.9 94 9.4 101140 96
2005-04-13 06:32:12 51°13.594 2°56.098 3.5 84 9.4 101140 96
2005-04-13 06:32:17 51°13.594 2°56.098 3.3 95 9.4 101140 96
2005-04-13 06:32:22 51°13.594 2°56.098 4.2 65 9.4 101140 96
2005-04-13 06:32:27 51°13.594 2°56.098 5.2 67 9.4 101140 96
2005-04-13 06:32:32 51°13.593 2°56.099 3.4 86 9.4 101140 96
2005-04-13 06:32:37 51°13.593 2°56.099 4.6 70 9.4 101140 96
2005-04-13 06:32:41 51°13.593 2°56.1 4.7 85 9.4 101140 96
2005-04-13 06:32:47 51°13.592 2°56.101 4.5 90 9.4 101140 96
2005-04-13 06:32:52 51°13.591 2°56.102 5.1 90 9.4 101140 96
2005-04-13 06:32:56 51°13.59 2°56.103 4.1 82 9.4 101140 97
2005-04-13 06:33:01 51°13.59 2°56.104 4.9 58 9.4 101140 97
2005-04-13 06:33:07 51°13.588 2°56.107 4.3 78 9.4 101140 96
2005-04-13 06:33:11 51°13.587 2°56.109 4.8 72 9.4 101140 96
2005-04-13 06:33:17 51°13.585 2°56.112 4 68 9.4 101140 96
2005-04-13 06:33:22 51°13.583 2°56.115 3.3 72 9.4 101140 96
2005-04-13 06:33:27 51°13.581 2°56.117 2.4 75 9.4 101140 96
2005-04-13 06:33:33 51°13.579 2°56.121 3.1 76 9.4 101140 96
2005-04-13 06:33:37 51°13.577 2°56.124 2.4 42 9.4 101140 96
2005-04-13 06:33:41 51°13.575 2°56.126 4.1 59 9.4 101140 96
2005-04-13 06:33:47 51°13.572 2°56.13 3.3 71 9.4 101140 97
2005-04-13 06:33:52 51°13.57 2°56.133 4.6 62 9.4 101140 97
2005-04-13 06:33:56 51°13.567 2°56.136 3.9 62 9.4 101140 97
2005-04-13 06:34:02 51°13.564 2°56.14 3.6 52 9.4 101140 97
2005-04-13 06:34:07 51°13.562 2°56.144 4 33 9.5 101140 97
2005-04-13 06:34:12 51°13.559 2°56.148 4.8 67 9.5 101140 97
2005-04-13 06:34:17 51°13.557 2°56.153 4.1 54 9.5 101140 97
2005-04-13 06:34:21 51°13.555 2°56.157 4.9 73 9.5 101140 97
2005-04-13 06:34:27 51°13.554 2°56.163 3.9 55 9.5 101140 97
2005-04-13 06:34:32 51°13.552 2°56.169 5.2 69 9.5 101140 97
2005-04-13 06:34:36 51°13.551 2°56.175 4.4 89 9.5 101140 97
2005-04-13 06:34:42 51°13.551 2°56.182 3.8 114 9.5 101140 97
2005-04-13 06:34:47 51°13.551 2°56.187 3.3 103 9.5 101140 97
2005-04-13 06:34:51 51°13.551 2°56.193 2.4 87 9.5 101140 97
2005-04-13 06:34:57 51°13.551 2°56.199 1.9 102 9.5 101140 97
2005-04-13 06:35:02 51°13.551 2°56.202 2 127 9.5 101140 97
2005-04-13 06:35:07 51°13.551 2°56.204 1.5 115 9.5 101140 97
2005-04-13 06:35:11 51°13.552 2°56.206 1.9 138 9.5 101140 97
2005-04-13 06:35:17 51°13.552 2°56.206 2 133 9.5 101140 97
2005-04-13 06:35:22 51°13.552 2°56.206 1.9 135 9.5 101140 97
2005-04-13 06:35:27 51°13.552 2°56.205 2.3 141 9.5 101140 97
2005-04-13 06:35:31 51°13.552 2°56.203 3 156 9.5 101140 97
2005-04-13 06:35:37 51°13.552 2°56.201 2.8 154 9.5 101140 97
2005-04-13 06:35:41 51°13.551 2°56.2 2.8 187 9.5 101140 97
2005-04-13 06:35:48 51°13.552 2°56.201 2 184 9.5 101140 97
2005-04-13 06:35:53 51°13.553 2°56.202 1.7 211 9.5 101140 97
2005-04-13 06:35:57 51°13.553 2°56.204 1.2 188 9.5 101140 97
2005-04-13 06:36:03 51°13.554 2°56.205 1.9 235 9.5 101140 97
2005-04-13 06:36:07 51°13.555 2°56.205 1.4 213 9.5 101140 97
2005-04-13 06:36:12 51°13.555 2°56.205 1.7 184 9.5 101140 97
2005-04-13 06:36:17 51°13.554 2°56.203 2.5 175 9.5 101140 97
2005-04-13 06:36:23 51°13.553 2°56.201 1.8 184 9.5 101140 97
2005-04-13 06:36:28 51°13.552 2°56.199 2.9 232 9.6 101140 97
2005-04-13 06:36:33 51°13.551 2°56.198 2.4 152 9.6 101140 97
2005-04-13 06:36:38 51°13.551 2°56.197 3.3 206 9.6 101140 97
2005-04-13 06:36:43 51°13.552 2°56.197 2.8 183 9.6 101140 97
2005-04-13 06:36:47 51°13.553 2°56.198 2.8 161 9.6 101140 97
2005-04-13 06:36:52 51°13.554 2°56.198 3 152 9.6 101140 97
2005-04-13 06:36:57 51°13.554 2°56.198 3.5 176 9.6 101140 97
2005-04-13 06:37:03 51°13.554 2°56.197 2.3 217 9.6 101140 97
2005-04-13 06:37:07 51°13.553 2°56.196 1.9 201 9.6 101140 97
2005-04-13 06:37:13 51°13.55 2°56.195 2.5 179 9.6 101140 97
2005-04-13 06:37:18 51°13.548 2°56.194 2.3 183 9.6 101140 97
2005-04-13 06:37:23 51°13.545 2°56.193 2.2 205 9.6 101140 97
2005-04-13 06:37:27 51°13.543 2°56.193 2.2 204 9.6 101140 97
2005-04-13 06:37:33 51°13.541 2°56.192 2.4 204 9.6 101140 97
2005-04-13 06:37:37 51°13.541 2°56.192 1.7 195 9.6 101140 97
2005-04-13 06:37:43 51°13.542 2°56.191 2.1 228 9.6 101140 97
2005-04-13 06:37:47 51°13.544 2°56.191 2 227 9.6 101140 97
2005-04-13 06:37:53 51°13.546 2°56.19 2.1 245 9.6 101140 97
2005-04-13 06:37:57 51°13.547 2°56.19 2.2 238 9.6 101130 97
2005-04-13 06:38:01 51°13.547 2°56.189 2.5 248 9.6 101130 97
2005-04-13 06:38:08 51°13.547 2°56.19 3.5 221 9.7 101140 97
2005-04-13 06:38:13 51°13.546 2°56.19 4.2 242 9.7 101140 97
2005-04-13 06:38:17 51°13.545 2°56.191 6.7 215 9.7 101140 97
2005-04-13 06:38:22 51°13.543 2°56.192 7 230 9.7 101140 97
2005-04-13 06:38:27 51°13.541 2°56.194 7.3 239 9.6 101140 97
2005-04-13 06:38:33 51°13.539 2°56.196 5.4 240 9.6 101140 97
2005-04-13 06:38:37 51°13.538 2°56.196 3.4 237 9.6 101140 97
2005-04-13 06:38:42 51°13.538 2°56.197 2.4 258 9.6 101140 97
2005-04-13 06:38:47 51°13.539 2°56.196 1.8 260 9.6 101150 97
2005-04-13 06:38:51 51°13.54 2°56.195 2.9 235 9.6 101150 97
2005-04-13 06:38:57 51°13.543 2°56.191 4.4 284 9.6 101150 97
2005-04-13 06:39:02 51°13.546 2°56.187 4.4 299 9.6 101150 97
2005-04-13 06:39:07 51°13.548 2°56.184 4 286 9.7 101130 97
2005-04-13 06:39:12 51°13.55 2°56.178 3.6 287 9.7 101130 97
2005-04-13 06:39:18 51°13.553 2°56.172 2.5 300 9.6 101140 97
2005-04-13 06:39:23 51°13.556 2°56.165 3.4 292 9.6 101140 97
2005-04-13 06:39:27 51°13.559 2°56.159 5.4 293 9.6 101140 97
2005-04-13 06:39:32 51°13.562 2°56.151 4.6 298 9.6 101140 97
2005-04-13 06:39:37 51°13.565 2°56.142 5.1 292 9.6 101140 97
2005-04-13 06:39:42 51°13.569 2°56.132 3.2 325 9.6 101140 97
2005-04-13 06:39:47 51°13.572 2°56.123 3.1 321 9.6 101140 97
2005-04-13 06:39:52 51°13.576 2°56.113 2.6 310 9.6 101140 97
2005-04-13 06:39:57 51°13.58 2°56.102 2.8 338 9.6 101140 97
2005-04-13 06:40:03 51°13.586 2°56.089 3 353 9.6 101140 97
2005-04-13 06:40:07 51°13.59 2°56.079 3.2 345 9.6 101140 97
2005-04-13 06:40:11 51°13.594 2°56.07 2.7 322 9.6 101140 97
2005-04-13 06:40:17 51°13.6 2°56.057 2.9 328 9.6 101130 97
2005-04-13 06:40:21 51°13.604 2°56.047 3.9 339 9.6 101130 97
2005-04-13 06:40:27 51°13.61 2°56.033 3.9 335 9.6 101140 97
2005-04-13 06:40:32 51°13.616 2°56.019 7.9 311 9.6 101140 97
2005-04-13 06:40:37 51°13.62 2°56.009 5.1 298 9.6 101140 97
2005-04-13 06:40:41 51°13.625 2°55.998 4.3 327 9.6 101140 97
2005-04-13 06:40:47 51°13.63 2°55.986 4 320 9.6 101140 97
2005-04-13 06:40:53 51°13.636 2°55.974 3.9 324 9.6 101140 97
2005-04-13 06:40:57 51°13.639 2°55.965 4.7 326 9.6 101140 97
2005-04-13 06:41:02 51°13.644 2°55.955 3.6 309 9.6 101140 97
2005-04-13 06:41:07 51°13.648 2°55.946 4.3 298 9.6 101140 97
2005-04-13 06:41:12 51°13.652 2°55.936 2.6 307 9.6 101140 97
2005-04-13 06:41:17 51°13.656 2°55.927 4.1 323 9.6 101130 97
2005-04-13 06:41:22 51°13.66 2°55.917 3.8 334 9.6 101130 97
2005-04-13 06:41:27 51°13.665 2°55.908 3.1 317 9.6 101140 97
2005-04-13 06:41:31 51°13.668 2°55.901 2.8 306 9.6 101140 97
2005-04-13 06:41:37 51°13.672 2°55.892 3.4 312 9.6 101140 97
2005-04-13 06:41:42 51°13.676 2°55.883 4.3 311 9.6 101140 97
2005-04-13 06:41:47 51°13.68 2°55.875 2.6 312 9.6 101140 97
2005-04-13 06:41:52 51°13.685 2°55.865 2.4 334 9.6 101140 97
2005-04-13 06:41:57 51°13.688 2°55.857 2.8 337 9.6 101140 97
2005-04-13 06:42:02 51°13.692 2°55.848 3.3 40 9.6 101140 97
2005-04-13 06:42:07 51°13.696 2°55.839 3.3 327 9.6 101140 97
2005-04-13 06:42:11 51°13.7 2°55.83 5 316 9.6 101140 97
2005-04-13 06:42:17 51°13.705 2°55.818 4.4 315 9.6 101140 97
2005-04-13 06:42:22 51°13.71 2°55.807 5 322 9.6 101140 97
2005-04-13 06:42:27 51°13.714 2°55.797 5.2 325 9.6 101140 97
2005-04-13 06:42:31 51°13.718 2°55.787 3.4 321 9.6 101140 97
2005-04-13 06:42:37 51°13.723 2°55.775 4.6 309 9.6 101130 97
2005-04-13 06:42:42 51°13.728 2°55.764 4.6 300 9.6 101130 97
2005-04-13 06:42:47 51°13.733 2°55.753 4.8 306 9.6 101130 97
2005-04-13 06:42:52 51°13.739 2°55.742 5.6 305 9.6 101130 97
2005-04-13 06:42:57 51°13.745 2°55.73 5.6 288 9.6 101130 97
2005-04-13 06:43:01 51°13.75 2°55.72 3.6 290 9.6 101130 97
2005-04-13 06:43:07 51°13.758 2°55.708 4 293 9.6 101130 97
2005-04-13 06:43:12 51°13.765 2°55.696 3.8 319 9.6 101130 97
2005-04-13 06:43:17 51°13.773 2°55.685 4.2 314 9.6 101130 97
2005-04-13 06:43:21 51°13.779 2°55.677 5.1 316 9.6 101130 97
2005-04-13 06:43:27 51°13.791 2°55.664 3.8 317 9.6 101130 97
2005-04-13 06:43:31 51°13.798 2°55.657 2.6 295 9.6 101130 97
2005-04-13 06:43:37 51°13.808 2°55.647 2.4 295 9.6 101130 97
2005-04-13 06:43:41 51°13.816 2°55.64 1.4 304 9.6 101130 97
2005-04-13 06:43:47 51°13.828 2°55.63 2.3 331 9.6 101130 97
2005-04-13 06:43:51 51°13.837 2°55.623 2.4 346 9.6 101130 97
2005-04-13 06:43:57 51°13.849 2°55.615 2.6 334 9.6 101130 97
2005-04-13 06:44:02 51°13.86 2°55.606 1.4 346 9.6 101130 97
2005-04-13 06:44:07 51°13.871 2°55.599 1.6 335 9.6 101140 97
2005-04-13 06:44:12 51°13.88 2°55.591 3.5 338 9.6 101140 97
2005-04-13 06:44:17 51°13.891 2°55.584 3.4 337 9.6 101140 97
2005-04-13 06:44:21 51°13.901 2°55.576 4.4 306 9.6 101140 97
2005-04-13 06:44:27 51°13.913 2°55.568 4.1 314 9.6 101140 97
2005-04-13 06:44:31 51°13.923 2°55.56 3.7 310 9.6 101140 97
2005-04-13 06:44:36 51°13.934 2°55.552 2 312 9.6 101140 97
2005-04-13 06:44:42 51°13.947 2°55.543 1.7 337 9.6 101140 97
2005-04-13 06:44:47 51°13.958 2°55.535 3.2 341 9.6 101130 97
2005-04-13 06:44:52 51°13.971 2°55.526 3.3 336 9.6 101130 97
2005-04-13 06:44:57 51°13.982 2°55.519 4.4 327 9.6 101130 97
2005-04-13 06:45:01 51°13.992 2°55.513 5.1 312 9.6 101130 97
2005-04-13 06:45:07 51°14.007 2°55.503 4.4 309 9.6 101130 97
2005-04-13 06:45:12 51°14.018 2°55.497 3.1 314 9.6 101130 97
2005-04-13 06:45:17 51°14.03 2°55.489 2.1 228 9.6 101140 97
2005-04-13 06:45:22 51°14.041 2°55.482 4.2 345 9.6 101140 97
2005-04-13 06:45:27 51°14.054 2°55.473 4.2 348 9.6 101130 97
2005-04-13 06:45:32 51°14.064 2°55.466 6.4 327 9.6 101130 97
2005-04-13 06:45:37 51°14.076 2°55.458 5.8 307 9.6 101130 97
2005-04-13 06:45:42 51°14.089 2°55.45 4.5 306 9.6 101130 97
2005-04-13 06:45:47 51°14.099 2°55.442 4.1 341 9.6 101130 97
2005-04-13 06:45:51 51°14.109 2°55.435 3.6 351 9.6 101130 97
2005-04-13 06:45:57 51°14.123 2°55.425 3.4 345 9.6 101130 97
2005-04-13 06:46:02 51°14.134 2°55.415 4.3 338 9.6 101130 97
2005-04-13 06:46:07 51°14.145 2°55.406 4.4 344 9.6 101130 97
2005-04-13 06:46:12 51°14.156 2°55.396 6.7 233 9.6 101130 97
2005-04-13 06:46:17 51°14.168 2°55.386 5.9 323 9.7 101130 97
2005-04-13 06:46:22 51°14.181 2°55.373 7.2 337 9.7 101130 97
2005-04-13 06:46:27 51°14.191 2°55.362 7.3 332 9.6 101140 97
2005-04-13 06:46:32 51°14.202 2°55.348 7.8 330 9.6 101140 97
2005-04-13 06:46:37 51°14.213 2°55.335 5.8 336 9.6 101140 97
2005-04-13 06:46:41 51°14.221 2°55.323 6.7 332 9.6 101140 97
2005-04-13 06:46:47 51°14.234 2°55.305 7.6 312 9.6 101130 97
2005-04-13 06:46:52 51°14.244 2°55.287 6.9 331 9.6 101130 97
2005-04-13 06:46:57 51°14.253 2°55.272 6.2 329 9.7 101130 97
2005-04-13 06:47:02 51°14.263 2°55.255 7.9 340 9.7 101130 97
2005-04-13 06:47:07 51°14.273 2°55.237 7.7 331 9.6 101130 97
2005-04-13 06:47:12 51°14.284 2°55.217 8.5 336 9.6 101130 97
2005-04-13 06:47:17 51°14.293 2°55.2 10.7 328 9.6 101130 97
2005-04-13 06:47:22 51°14.303 2°55.181 8.5 332 9.6 101130 97
2005-04-13 06:47:27 51°14.312 2°55.162 9.5 324 9.7 101130 97
2005-04-13 06:47:32 51°14.323 2°55.14 8.4 331 9.7 101130 97
2005-04-13 06:47:37 51°14.333 2°55.122 8.4 329 9.6 101130 97
2005-04-13 06:47:41 51°14.341 2°55.106 8.6 330 9.6 101130 97
2005-04-13 06:47:47 51°14.354 2°55.081 7.7 325 9.6 101130 97
2005-04-13 06:47:52 51°14.365 2°55.061 8.9 325 9.6 101130 97
2005-04-13 06:47:56 51°14.375 2°55.042 8.4 321 9.6 101120 97
2005-04-13 06:48:02 51°14.388 2°55.018 8.9 326 9.6 101120 97
2005-04-13 06:48:07 51°14.399 2°54.997 9.2 327 9.6 101120 96
2005-04-13 06:48:11 51°14.409 2°54.976 10.7 321 9.6 101120 96
2005-04-13 06:48:17 51°14.421 2°54.951 9.7 324 9.6 101120 96
2005-04-13 06:48:22 51°14.433 2°54.926 10.2 321 9.6 101120 96
2005-04-13 06:48:27 51°14.443 2°54.904 10 326 9.6 101120 96
2005-04-13 06:48:32 51°14.453 2°54.879 11.1 326 9.6 101120 96
2005-04-13 06:48:37 51°14.463 2°54.854 10.5 328 9.6 101110 96
2005-04-13 06:48:41 51°14.471 2°54.833 11.3 327 9.6 101110 96
2005-04-13 06:48:47 51°14.482 2°54.801 11.4 324 9.6 101110 96
2005-04-13 06:48:52 51°14.493 2°54.773 11.5 321 9.6 101110 96
2005-04-13 06:48:57 51°14.502 2°54.749 10.6 327 9.6 101110 96
2005-04-13 06:49:02 51°14.513 2°54.72 10.8 327 9.6 101110 96
2005-04-13 06:49:07 51°14.523 2°54.696 10.6 322 9.6 101110 96
2005-04-13 06:49:12 51°14.533 2°54.67 10.1 324 9.6 101110 96
2005-04-13 06:49:17 51°14.543 2°54.644 10.6 327 9.6 101100 96
2005-04-13 06:49:21 51°14.552 2°54.623 10 327 9.6 101100 96
2005-04-13 06:49:27 51°14.564 2°54.591 11.2 324 9.6 101110 96
2005-04-13 06:49:31 51°14.573 2°54.568 10.7 319 9.6 101110 96
2005-04-13 06:49:36 51°14.583 2°54.542 11.7 328 9.6 101100 96
2005-04-13 06:49:42 51°14.595 2°54.51 11.1 325 9.6 101100 96
2005-04-13 06:49:47 51°14.605 2°54.486 11.7 323 9.6 101110 96
2005-04-13 06:49:51 51°14.614 2°54.463 11.3 322 9.6 101110 96
2005-04-13 06:49:57 51°14.626 2°54.434 12 322 9.6 101110 96
2005-04-13 06:50:02 51°14.637 2°54.406 11.6 322 9.6 101110 96
2005-04-13 06:50:07 51°14.648 2°54.38 11.4 318 9.6 101110 96
2005-04-13 06:50:11 51°14.656 2°54.359 10.4 328 9.6 101110 96
2005-04-13 06:50:17 51°14.667 2°54.329 12 322 9.5 101110 96
2005-04-13 06:50:22 51°14.678 2°54.303 11.4 322 9.5 101110 96
2005-04-13 06:50:27 51°14.688 2°54.277 10.8 323 9.6 101110 96
2005-04-13 06:50:32 51°14.699 2°54.25 10.4 328 9.6 101110 96
2005-04-13 06:50:37 51°14.71 2°54.225 11.1 328 9.5 101110 96
2005-04-13 06:50:40 51°14.717 2°54.207 11.1 324 9.5 101110 96
2005-04-13 06:50:47 51°14.732 2°54.173 11 320 9.5 101110 96
2005-04-13 06:50:52 51°14.743 2°54.147 11.4 323 9.5 101110 96
2005-04-13 06:50:57 51°14.753 2°54.121 10.1 323 9.5 101110 96
2005-04-13 06:51:01 51°14.763 2°54.097 10 326 9.5 101110 96
2005-04-13 06:51:07 51°14.775 2°54.069 10.8 329 9.5 101120 96
2005-04-13 06:51:11 51°14.784 2°54.045 11.3 323 9.5 101120 96
2005-04-13 06:51:17 51°14.796 2°54.017 10.5 322 9.5 101110 96
2005-04-13 06:51:21 51°14.804 2°53.997 10.9 321 9.5 101110 96
2005-04-13 06:51:27 51°14.817 2°53.966 10.9 320 9.5 101110 96
2005-04-13 06:51:32 51°14.828 2°53.938 9.8 325 9.5 101110 96
2005-04-13 06:51:37 51°14.837 2°53.915 9.9 326 9.5 101110 96
2005-04-13 06:51:40 51°14.845 2°53.897 9.6 321 9.5 101110 96
2005-04-13 06:51:47 51°14.858 2°53.864 10.1 327 9.5 101110 96
2005-04-13 06:51:52 51°14.869 2°53.838 10 324 9.5 101110 96
2005-04-13 06:51:57 51°14.879 2°53.813 10.9 324 9.5 101110 96
2005-04-13 06:52:02 51°14.89 2°53.787 10.7 324 9.5 101110 96
2005-04-13 06:52:07 51°14.901 2°53.759 10.9 324 9.5 101110 96
2005-04-13 06:52:12 51°14.912 2°53.734 11 323 9.5 101110 96
2005-04-13 06:52:17 51°14.922 2°53.711 10.5 329 9.5 101110 96
2005-04-13 06:52:21 51°14.932 2°53.687 10 330 9.5 101110 96
2005-04-13 06:52:27 51°14.944 2°53.657 10.1 331 9.5 101110 96
2005-04-13 06:52:31 51°14.952 2°53.637 10.5 326 9.5 101110 96
2005-04-13 06:52:37 51°14.963 2°53.608 11.2 327 9.5 101110 96
2005-04-13 06:52:41 51°14.971 2°53.587 11.6 329 9.5 101110 96
2005-04-13 06:52:47 51°14.982 2°53.554 11.1 325 9.5 101110 96
2005-04-13 06:52:52 51°14.99 2°53.526 11.6 330 9.5 101110 96
2005-04-13 06:52:57 51°14.997 2°53.499 11.2 325 9.5 101110 96
2005-04-13 06:53:01 51°15.004 2°53.473 11.1 325 9.5 101110 96
2005-04-13 06:53:07 51°15.012 2°53.443 10.6 326 9.5 101110 96
2005-04-13 06:53:11 51°15.019 2°53.421 10 330 9.5 101110 96
2005-04-13 06:53:17 51°15.028 2°53.388 10.3 329 9.4 101110 97
2005-04-13 06:53:21 51°15.034 2°53.366 10.4 328 9.4 101110 97
2005-04-13 06:53:26 51°15.043 2°53.335 11.3 327 9.5 101100 97
2005-04-13 06:53:32 51°15.052 2°53.305 10.4 325 9.5 101100 97
2005-04-13 06:53:37 51°15.06 2°53.278 11.3 330 9.5 101110 97
2005-04-13 06:53:43 51°15.069 2°53.244 10.8 332 9.5 101110 97
2005-04-13 06:53:47 51°15.076 2°53.223 10.5 329 9.4 101100 97
2005-04-13 06:53:52 51°15.085 2°53.192 10.9 326 9.4 101100 97
2005-04-13 06:53:57 51°15.092 2°53.168 10.1 329 9.4 101110 97
2005-04-13 06:54:01 51°15.099 2°53.142 9.4 329 9.4 101110 97
2005-04-13 06:54:07 51°15.108 2°53.113 10 327 9.4 101100 97
2005-04-13 06:54:11 51°15.115 2°53.088 10.6 324 9.4 101100 97
2005-04-13 06:54:17 51°15.124 2°53.058 10.2 329 9.4 101110 97
2005-04-13 06:54:22 51°15.133 2°53.028 9.6 332 9.4 101110 97
2005-04-13 06:54:27 51°15.14 2°53.004 10.8 328 9.4 101110 97
2005-04-13 06:54:31 51°15.147 2°52.978 9.4 326 9.4 101110 97
2005-04-13 06:54:37 51°15.156 2°52.948 10.7 326 9.4 101110 97
2005-04-13 06:54:42 51°15.164 2°52.92 10 328 9.4 101110 97
2005-04-13 06:54:47 51°15.172 2°52.893 11.1 327 9.4 101110 97
2005-04-13 06:54:51 51°15.179 2°52.868 10.6 325 9.4 101110 97
2005-04-13 06:54:57 51°15.188 2°52.838 10.7 331 9.4 101110 97
2005-04-13 06:55:02 51°15.195 2°52.81 10.7 327 9.4 101110 97
2005-04-13 06:55:07 51°15.203 2°52.782 10.5 325 9.4 101110 97
2005-04-13 06:55:12 51°15.212 2°52.752 10.1 331 9.4 101110 97
2005-04-13 06:55:17 51°15.219 2°52.727 10.3 331 9.4 101110 97
2005-04-13 06:55:22 51°15.227 2°52.696 10.8 328 9.4 101110 97
2005-04-13 06:55:27 51°15.233 2°52.671 10.6 330 9.4 101110 97
2005-04-13 06:55:31 51°15.24 2°52.646 11.5 331 9.4 101110 97
2005-04-13 06:55:35 51°15.245 2°52.623 10.7 328 9.4 101110 97
2005-04-13 06:55:42 51°15.254 2°52.583 10.7 330 9.4 101110 97
2005-04-13 06:55:47 51°15.26 2°52.557 9.9 330 9.4 101110 97
2005-04-13 06:55:51 51°15.266 2°52.532 10.5 331 9.4 101110 97
2005-04-13 06:55:57 51°15.273 2°52.5 10.3 333 9.4 101110 97
2005-04-13 06:56:01 51°15.278 2°52.477 10.7 334 9.4 101110 97
2005-04-13 06:56:07 51°15.287 2°52.44 10.8 333 9.4 101100 97
2005-04-13 06:56:12 51°15.294 2°52.411 10.6 336 9.4 101100 97
2005-04-13 06:56:17 51°15.3 2°52.382 10.3 336 9.4 101110 97
2005-04-13 06:56:22 51°15.307 2°52.354 11 334 9.4 101110 97
2005-04-13 06:56:27 51°15.313 2°52.326 10.5 334 9.4 101110 97
2005-04-13 06:56:31 51°15.318 2°52.303 11 337 9.4 101110 97
2005-04-13 06:56:37 51°15.324 2°52.271 11.1 332 9.4 101110 97
2005-04-13 06:56:42 51°15.33 2°52.241 11.6 331 9.4 101110 97
2005-04-13 06:56:47 51°15.336 2°52.212 11.3 333 9.4 101110 97
2005-04-13 06:56:51 51°15.34 2°52.186 11.2 334 9.4 101110 97
2005-04-13 06:56:57 51°15.347 2°52.154 11.6 331 9.4 101110 97
2005-04-13 06:57:01 51°15.351 2°52.13 12.1 332 9.4 101110 97
2005-04-13 06:57:07 51°15.358 2°52.092 12.5 329 9.4 101100 97
2005-04-13 06:57:11 51°15.363 2°52.068 11.9 336 9.4 101100 97
2005-04-13 06:57:17 51°15.369 2°52.036 10.4 335 9.4 101110 97
2005-04-13 06:57:22 51°15.375 2°52.004 11.2 333 9.4 101110 97
2005-04-13 06:57:27 51°15.38 2°51.977 10.6 336 9.4 101100 97
2005-04-13 06:57:31 51°15.385 2°51.951 11.3 331 9.4 101100 97
2005-04-13 06:57:37 51°15.391 2°51.918 10.3 333 9.4 101100 97
2005-04-13 06:57:42 51°15.397 2°51.885 10.8 334 9.4 101100 97
2005-04-13 06:57:47 51°15.403 2°51.856 10.4 336 9.4 101100 97
2005-04-13 06:57:51 51°15.407 2°51.833 11.2 337 9.4 101110 97
2005-04-13 06:57:56 51°15.412 2°51.803 10.8 335 9.4 101110 97
2005-04-13 06:58:02 51°15.418 2°51.767 11.5 341 9.4 101110 97
2005-04-13 06:58:07 51°15.42 2°51.74 11.6 340 9.4 101110 97
2005-04-13 06:58:12 51°15.422 2°51.707 11.7 341 9.4 101110 97
2005-04-13 06:58:17 51°15.423 2°51.679 11.8 344 9.4 101110 97
2005-04-13 06:58:22 51°15.423 2°51.645 11.9 343 9.4 101110 97
2005-04-13 06:58:27 51°15.423 2°51.615 13 344 9.4 101100 97
2005-04-13 06:58:32 51°15.422 2°51.585 12.1 341 9.4 101110 97
2005-04-13 06:58:37 51°15.421 2°51.56 11.3 343 9.4 101110 97
2005-04-13 06:58:41 51°15.42 2°51.539 11.4 342 9.4 101110 97
2005-04-13 06:58:47 51°15.418 2°51.509 10.7 341 9.4 101110 97
2005-04-13 06:58:53 51°15.416 2°51.48 11.2 344 9.4 101110 97
2005-04-13 06:58:57 51°15.415 2°51.463 10.7 342 9.3 101100 97
2005-04-13 06:59:02 51°15.413 2°51.439 10 342 9.4 101110 97
2005-04-13 06:59:07 51°15.411 2°51.418 9.9 343 9.4 101110 97
2005-04-13 06:59:12 51°15.41 2°51.398 9.7 340 9.3 101110 97
2005-04-13 06:59:16 51°15.409 2°51.383 10 340 9.3 101110 97
2005-04-13 06:59:22 51°15.407 2°51.362 10 340 9.3 101110 97
2005-04-13 06:59:27 51°15.406 2°51.343 9.2 334 9.4 101110 97
2005-04-13 06:59:32 51°15.405 2°51.327 8.2 338 9.4 101110 97
2005-04-13 06:59:37 51°15.405 2°51.311 9 334 9.3 101110 97
2005-04-13 06:59:42 51°15.404 2°51.293 9.2 329 9.4 101110 97
2005-04-13 06:59:47 51°15.404 2°51.279 8.6 332 9.4 101110 97
2005-04-13 06:59:52 51°15.403 2°51.265 9.3 333 9.4 101110 97
2005-04-13 06:59:57 51°15.403 2°51.251 8.3 328 9.4 101110 97
2005-04-13 07:00:02 51°15.403 2°51.237 8.8 330 9.4 101110 97
2005-04-13 07:00:07 51°15.404 2°51.223 8.5 328 9.4 101110 97
2005-04-13 07:00:12 51°15.404 2°51.211 7.9 327 9.3 101110 97
2005-04-13 07:00:17 51°15.404 2°51.199 7.1 324 9.3 101110 97
2005-04-13 07:00:21 51°15.405 2°51.189 7 322 9.3 101110 97
2005-04-13 07:00:27 51°15.405 2°51.175 8 320 9.3 101110 97
2005-04-13 07:00:32 51°15.406 2°51.165 7.9 321 9.3 101110 97
2005-04-13 07:00:37 51°15.407 2°51.153 7.3 317 9.3 101110 97
2005-04-13 07:00:41 51°15.408 2°51.146 7 41 9.3 101110 97
2005-04-13 07:00:47 51°15.409 2°51.133 6.7 318 9.3 101110 97
2005-04-13 07:00:52 51°15.41 2°51.123 7.6 316 9.3 101110 97
2005-04-13 07:00:57 51°15.412 2°51.115 7.5 312 9.3 101110 97
2005-04-13 07:01:02 51°15.413 2°51.105 7.2 315 9.3 101110 97
2005-04-13 07:01:07 51°15.414 2°51.097 7.2 312 9.3 101110 97
2005-04-13 07:01:12 51°15.416 2°51.088 7.2 311 9.3 101110 97
2005-04-13 07:01:17 51°15.418 2°51.079 6.5 309 9.3 101110 97
2005-04-13 07:01:21 51°15.419 2°51.073 7.1 312 9.3 101110 97
2005-04-13 07:01:27 51°15.421 2°51.063 6.6 306 9.3 101110 97
2005-04-13 07:01:32 51°15.423 2°51.055 6.1 306 9.3 101110 97
2005-04-13 07:01:37 51°15.425 2°51.048 6.1 299 9.3 101110 97
2005-04-13 07:01:42 51°15.427 2°51.041 6.2 303 9.3 101120 97
2005-04-13 07:01:46 51°15.428 2°51.035 6.3 303 9.3 101120 97
2005-04-13 07:01:51 51°15.43 2°51.028 5.6 303 9.3 101120 97
2005-04-13 07:01:57 51°15.432 2°51.02 5.3 300 9.3 101120 97
2005-04-13 07:02:03 51°15.434 2°51.012 6.3 299 9.3 101120 97
2005-04-13 07:02:07 51°15.436 2°51.006 6.2 301 9.3 101120 97
2005-04-13 07:02:12 51°15.438 2°51 6 305 9.3 101120 97
2005-04-13 07:02:17 51°15.44 2°50.995 6.9 298 9.3 101120 97
2005-04-13 07:02:21 51°15.441 2°50.99 6.7 297 9.3 101120 97
2005-04-13 07:02:27 51°15.443 2°50.983 6.3 298 9.3 101120 97
2005-04-13 07:02:32 51°15.445 2°50.976 6.2 298 9.3 101120 97
2005-04-13 07:02:36 51°15.447 2°50.972 6 293 9.3 101120 97
2005-04-13 07:02:41 51°15.449 2°50.966 6 296 9.3 101120 97
2005-04-13 07:02:47 51°15.45 2°50.96 6.3 297 9.3 101120 97
2005-04-13 07:02:51 51°15.452 2°50.955 6.7 296 9.3 101120 97
2005-04-13 07:02:57 51°15.454 2°50.949 6.5 291 9.3 101120 97
2005-04-13 07:03:02 51°15.456 2°50.943 6.5 295 9.3 101120 97
2005-04-13 07:03:07 51°15.457 2°50.938 6.5 293 9.3 101120 97
2005-04-13 07:03:11 51°15.459 2°50.934 6 294 9.3 101120 97
2005-04-13 07:03:17 51°15.46 2°50.928 6 296 9.3 101120 97
2005-04-13 07:03:21 51°15.462 2°50.924 5.9 296 9.3 101120 97
2005-04-13 07:03:27 51°15.464 2°50.918 5.9 298 9.3 101120 97
2005-04-13 07:03:31 51°15.465 2°50.914 6 302 9.3 101120 97
2005-04-13 07:03:36 51°15.466 2°50.909 6.3 298 9.3 101120 97
2005-04-13 07:03:42 51°15.468 2°50.903 5.9 298 9.3 101120 97
2005-04-13 07:03:47 51°15.469 2°50.899 6 298 9.3 101120 97
2005-04-13 07:03:52 51°15.471 2°50.894 6.4 299 9.3 101120 97
2005-04-13 07:03:57 51°15.472 2°50.89 5.8 296 9.3 101120 97
2005-04-13 07:04:02 51°15.473 2°50.885 5.4 292 9.3 101120 97
2005-04-13 07:04:07 51°15.474 2°50.881 6.2 290 9.3 101120 97
2005-04-13 07:04:11 51°15.476 2°50.877 6.1 298 9.3 101120 97
2005-04-13 07:04:17 51°15.477 2°50.873 5.9 296 9.3 101120 97
2005-04-13 07:04:22 51°15.479 2°50.868 5.8 294 9.3 101120 97
2005-04-13 07:04:27 51°15.48 2°50.864 5.5 299 9.3 101120 97
2005-04-13 07:04:32 51°15.481 2°50.86 5.7 294 9.3 101120 97
2005-04-13 07:04:37 51°15.482 2°50.856 6.2 295 9.3 101120 97
2005-04-13 07:04:42 51°15.484 2°50.852 6.6 295 9.3 101120 97
2005-04-13 07:04:47 51°15.485 2°50.848 6.4 299 9.3 101120 97
2005-04-13 07:04:51 51°15.486 2°50.845 5.7 295 9.3 101110 97
2005-04-13 07:04:57 51°15.487 2°50.841 6.2 291 9.3 101110 97
2005-04-13 07:05:02 51°15.489 2°50.836 6.1 297 9.3 101110 97
2005-04-13 07:05:07 51°15.49 2°50.833 5.9 293 9.3 101120 97
2005-04-13 07:05:11 51°15.491 2°50.83 6.2 295 9.3 101120 97
2005-04-13 07:05:17 51°15.492 2°50.826 6.2 295 9.3 101120 97
2005-04-13 07:05:21 51°15.493 2°50.822 5.9 295 9.3 101120 97
2005-04-13 07:05:27 51°15.494 2°50.818 6.2 299 9.3 101120 97
2005-04-13 07:05:32 51°15.495 2°50.815 7 296 9.3 101120 97
2005-04-13 07:05:37 51°15.497 2°50.811 6.9 298 9.3 101120 97
2005-04-13 07:05:41 51°15.498 2°50.808 5.8 296 9.3 101120 97
2005-04-13 07:05:47 51°15.499 2°50.804 6 296 9.3 101120 97
2005-04-13 07:05:52 51°15.5 2°50.8 6.5 298 9.3 101120 97
2005-04-13 07:05:56 51°15.501 2°50.797 3.3 300 9.3 101120 97
2005-04-13 07:06:02 51°15.502 2°50.792 5.8 301 9.3 101120 97
2005-04-13 07:06:07 51°15.503 2°50.789 6.3 301 9.3 101120 97
2005-04-13 07:06:12 51°15.505 2°50.784 5.2 307 9.3 101120 97
2005-04-13 07:06:17 51°15.506 2°50.78 6 305 9.3 101120 97
2005-04-13 07:06:21 51°15.506 2°50.777 6.2 305 9.3 101120 97
2005-04-13 07:06:27 51°15.507 2°50.772 5.8 307 9.3 101120 97
2005-04-13 07:06:32 51°15.508 2°50.769 6.4 307 9.3 101120 97
2005-04-13 07:06:36 51°15.509 2°50.765 6 309 9.3 101110 97
2005-04-13 07:06:42 51°15.51 2°50.76 5.9 307 9.3 101110 97
2005-04-13 07:06:47 51°15.511 2°50.756 5.9 314 9.3 101110 97
2005-04-13 07:06:52 51°15.512 2°50.752 6.2 311 9.3 101110 97
2005-04-13 07:06:57 51°15.513 2°50.748 5.8 311 9.3 101120 97
2005-04-13 07:07:02 51°15.513 2°50.743 6.4 313 9.3 101120 97
2005-04-13 07:07:07 51°15.514 2°50.739 5.5 315 9.3 101120 97
2005-04-13 07:07:12 51°15.515 2°50.735 6.1 313 9.3 101120 97
2005-04-13 07:07:17 51°15.516 2°50.731 6.1 44 9.3 101110 97
2005-04-13 07:07:22 51°15.516 2°50.726 6.2 315 9.3 101110 97
2005-04-13 07:07:27 51°15.517 2°50.722 5.8 43 9.3 101120 97
2005-04-13 07:07:32 51°15.517 2°50.718 6.2 315 9.3 101110 97
2005-04-13 07:07:37 51°15.518 2°50.714 6 316 9.3 101110 97
2005-04-13 07:07:42 51°15.519 2°50.709 6.3 315 9.3 101110 97
2005-04-13 07:07:47 51°15.519 2°50.705 5.7 322 9.3 101110 97
2005-04-13 07:07:52 51°15.52 2°50.7 5.7 315 9.3 101110 97
2005-04-13 07:07:56 51°15.52 2°50.697 6 316 9.3 101110 97
2005-04-13 07:08:02 51°15.521 2°50.691 5.7 321 9.3 101110 97
2005-04-13 07:08:07 51°15.521 2°50.687 6 323 9.3 101110 97
2005-04-13 07:08:12 51°15.521 2°50.683 6.1 325 9.3 101110 97
2005-04-13 07:08:17 51°15.522 2°50.678 6.2 325 9.3 101110 97
2005-04-13 07:08:22 51°15.522 2°50.674 6.4 322 9.3 101110 97
2005-04-13 07:08:27 51°15.522 2°50.67 5.9 328 9.3 101110 97
2005-04-13 07:08:32 51°15.523 2°50.665 5.8 325 9.3 101110 97
2005-04-13 07:08:37 51°15.523 2°50.661 5.3 324 9.3 101110 97
2005-04-13 07:08:41 51°15.523 2°50.658 5.8 328 9.3 101110 97
2005-04-13 07:08:47 51°15.523 2°50.652 5.3 327 9.3 101110 97
2005-04-13 07:08:51 51°15.523 2°50.648 5.7 332 9.3 101110 97
2005-04-13 07:08:57 51°15.524 2°50.643 6.1 332 9.3 101110 97
2005-04-13 07:09:01 51°15.524 2°50.64 6 333 9.3 101110 97
2005-04-13 07:09:07 51°15.524 2°50.634 5.6 331 9.3 101110 97
2005-04-13 07:09:12 51°15.524 2°50.63 5.9 333 9.3 101110 97
2005-04-13 07:09:16 51°15.524 2°50.627 5.9 336 9.3 101110 97
2005-04-13 07:09:22 51°15.523 2°50.622 5.6 330 9.3 101110 97
2005-04-13 07:09:27 51°15.523 2°50.618 5.5 337 9.3 101110 97
2005-04-13 07:09:32 51°15.523 2°50.613 5.9 341 9.3 101110 97
2005-04-13 07:09:36 51°15.523 2°50.609 5.9 340 9.3 101110 97
2005-04-13 07:09:42 51°15.523 2°50.604 5.6 343 9.3 101110 97
2005-04-13 07:09:47 51°15.522 2°50.6 5.6 342 9.3 101110 97
2005-04-13 07:09:52 51°15.522 2°50.596 6.1 341 9.3 101110 97
2005-04-13 07:09:57 51°15.522 2°50.593 5.7 348 9.3 101110 97
2005-04-13 07:10:01 51°15.521 2°50.589 5.6 346 9.3 101110 97
2005-04-13 07:10:06 51°15.521 2°50.585 5.5 349 9.3 101120 97
2005-04-13 07:10:12 51°15.52 2°50.58 5.8 349 9.3 101110 97
2005-04-13 07:10:16 51°15.52 2°50.577 5.9 353 9.3 101110 97
2005-04-13 07:10:21 51°15.519 2°50.574 5.7 348 9.3 101110 97
2005-04-13 07:10:27 51°15.518 2°50.569 5.6 354 9.3 101110 97
2005-04-13 07:10:31 51°15.518 2°50.566 5.8 358 9.3 101110 97
2005-04-13 07:10:37 51°15.517 2°50.562 5.5 360 9.3 101110 97
2005-04-13 07:10:41 51°15.516 2°50.559 5.8 1 9.3 101110 97
2005-04-13 07:10:47 51°15.515 2°50.554 5.7 360 9.3 101110 97
2005-04-13 07:10:51 51°15.515 2°50.551 5.1 2 9.3 101110 97
2005-04-13 07:10:57 51°15.514 2°50.548 5.8 4 9.3 101110 97
2005-04-13 07:11:02 51°15.512 2°50.544 5.9 1 9.3 101110 97
2005-04-13 07:11:07 51°15.511 2°50.541 5.6 6 9.3 101120 98
2005-04-13 07:11:12 51°15.511 2°50.538 5.6 7 9.3 101120 98
2005-04-13 07:11:17 51°15.509 2°50.535 5.8 8 9.3 101120 97
2005-04-13 07:11:21 51°15.509 2°50.533 5.6 11 9.3 101120 98
2005-04-13 07:11:27 51°15.507 2°50.529 5.7 14 9.3 101120 98
2005-04-13 07:11:32 51°15.506 2°50.526 6.2 9 9.3 101120 98
2005-04-13 07:11:37 51°15.505 2°50.523 5.6 13 9.3 101110 98
2005-04-13 07:11:41 51°15.504 2°50.521 5.7 14 9.3 101120 98
2005-04-13 07:11:47 51°15.502 2°50.518 6.4 16 9.3 101120 98
2005-04-13 07:11:52 51°15.501 2°50.515 6.5 17 9.3 101120 98
2005-04-13 07:11:55 51°15.5 2°50.514 5.7 22 9.3 101120 98
2005-04-13 07:12:02 51°15.498 2°50.511 6.3 26 9.3 101120 98
2005-04-13 07:12:07 51°15.497 2°50.508 6.1 27 9.3 101110 98
2005-04-13 07:12:12 51°15.495 2°50.506 5.8 33 9.3 101110 98
2005-04-13 07:12:17 51°15.494 2°50.504 5.9 37 9.3 101110 98
2005-04-13 07:12:22 51°15.492 2°50.502 6 33 9.3 101110 98
2005-04-13 07:12:27 51°15.491 2°50.5 6 35 9.3 101110 98
2005-04-13 07:12:32 51°15.49 2°50.498 6.9 38 9.3 101110 98
2005-04-13 07:12:36 51°15.489 2°50.497 6 44 9.3 101110 98
2005-04-13 07:12:42 51°15.487 2°50.495 6.2 43 9.3 101110 98
2005-04-13 07:12:47 51°15.486 2°50.494 6.3 47 9.3 101110 98
2005-04-13 07:12:52 51°15.484 2°50.493 5.8 47 9.3 101110 98
2005-04-13 07:12:56 51°15.483 2°50.491 5.7 46 9.3 101110 98
2005-04-13 07:13:02 51°15.482 2°50.49 5.5 47 9.3 101110 98
2005-04-13 07:13:07 51°15.481 2°50.489 5.4 55 9.3 101110 98
2005-04-13 07:13:11 51°15.48 2°50.488 5.5 50 9.3 101110 98
2005-04-13 07:13:17 51°15.479 2°50.487 5.7 55 9.3 101110 98
2005-04-13 07:13:23 51°15.477 2°50.486 5.9 57 9.3 101110 98
2005-04-13 07:13:27 51°15.476 2°50.485 5.5 55 9.3 101110 98
2005-04-13 07:13:32 51°15.476 2°50.484 5.5 59 9.3 101110 98
2005-04-13 07:13:37 51°15.475 2°50.484 5.6 62 9.3 101110 98
2005-04-13 07:13:42 51°15.474 2°50.483 5.2 58 9.3 101110 98
2005-04-13 07:13:47 51°15.473 2°50.482 6 60 9.3 101110 98
2005-04-13 07:13:52 51°15.472 2°50.481 6.2 63 9.3 101110 98
2005-04-13 07:13:56 51°15.471 2°50.481 6.9 63 9.3 101110 98
2005-04-13 07:14:02 51°15.47 2°50.48 6.6 60 9.3 101110 98
2005-04-13 07:14:07 51°15.469 2°50.48 6.2 65 9.3 101110 98
2005-04-13 07:14:12 51°15.468 2°50.479 6 63 9.3 101110 98
2005-04-13 07:14:17 51°15.468 2°50.479 5.9 65 9.3 101110 98
2005-04-13 07:14:22 51°15.467 2°50.478 5.7 65 9.3 101110 98
2005-04-13 07:14:27 51°15.466 2°50.478 5.4 66 9.3 101110 98
2005-04-13 07:14:31 51°15.465 2°50.477 4.6 70 9.2 101110 98
2005-04-13 07:14:37 51°15.465 2°50.476 5.7 66 9.2 101110 98
2005-04-13 07:14:41 51°15.464 2°50.476 5.6 65 9.2 101110 98
2005-04-13 07:14:47 51°15.464 2°50.475 5.9 63 9.2 101110 98
2005-04-13 07:14:52 51°15.463 2°50.475 5.5 62 9.3 101110 98
2005-04-13 07:14:57 51°15.463 2°50.474 5.8 65 9.3 101110 98
2005-04-13 07:15:01 51°15.462 2°50.473 5.4 69 9.3 101110 98
2005-04-13 07:15:07 51°15.461 2°50.473 6.3 65 9.3 101110 98
2005-04-13 07:15:12 51°15.46 2°50.473 6.4 62 9.3 101110 98
2005-04-13 07:15:17 51°15.459 2°50.473 6 67 9.3 101110 98
2005-04-13 07:15:22 51°15.458 2°50.473 6.1 62 9.3 101110 98
2005-04-13 07:15:27 51°15.458 2°50.472 5.9 62 9.2 101110 98
2005-04-13 07:15:31 51°15.457 2°50.472 6.1 64 9.2 101110 98
2005-04-13 07:15:37 51°15.457 2°50.471 5.9 59 9.2 101110 98
2005-04-13 07:15:40 51°15.456 2°50.471 5.6 58 9.3 101110 98
2005-04-13 07:15:47 51°15.456 2°50.47 4.9 64 9.3 101110 98
2005-04-13 07:15:51 51°15.456 2°50.469 4.8 66 9.3 101110 98
2005-04-13 07:15:56 51°15.456 2°50.468 5.7 66 9.3 101110 98
2005-04-13 07:16:03 51°15.455 2°50.467 5.3 69 9.3 101110 98
2005-04-13 07:16:07 51°15.455 2°50.467 5.8 66 9.3 101110 98
2005-04-13 07:16:12 51°15.454 2°50.466 5.6 61 9.3 101110 98
2005-04-13 07:16:16 51°15.454 2°50.465 5.4 67 9.2 101110 98
2005-04-13 07:16:22 51°15.454 2°50.464 5.5 62 9.2 101110 98
2005-04-13 07:16:27 51°15.453 2°50.463 4.9 65 9.2 101110 98
2005-04-13 07:16:31 51°15.453 2°50.463 5 62 9.2 101110 98
2005-04-13 07:16:36 51°15.453 2°50.462 4.8 70 9.2 101110 98
2005-04-13 07:16:41 51°15.453 2°50.461 5.6 65 9.2 101110 98
2005-04-13 07:16:46 51°15.453 2°50.46 5.1 67 9.2 101110 98
2005-04-13 07:16:52 51°15.453 2°50.46 4.9 67 9.2 101110 98
2005-04-13 07:16:57 51°15.452 2°50.459 5.9 63 9.3 101110 98
2005-04-13 07:17:02 51°15.452 2°50.458 5 72 9.3 101110 98
2005-04-13 07:17:07 51°15.452 2°50.457 5.4 66 9.3 101110 98
2005-04-13 07:17:12 51°15.452 2°50.457 5.4 66 9.2 101110 98
2005-04-13 07:17:17 51°15.452 2°50.456 4.7 70 9.2 101110 98
2005-04-13 07:17:22 51°15.452 2°50.455 5.3 65 9.2 101110 98
2005-04-13 07:17:27 51°15.452 2°50.454 5.4 66 9.2 101110 98
2005-04-13 07:17:31 51°15.452 2°50.454 5.4 65 9.3 101110 98
2005-04-13 07:17:37 51°15.452 2°50.453 5 68 9.3 101110 98
2005-04-13 07:17:42 51°15.452 2°50.452 5.6 64 9.3 101110 98
2005-04-13 07:17:47 51°15.451 2°50.451 5.3 68 9.3 101110 98
2005-04-13 07:17:52 51°15.451 2°50.451 5.1 65 9.3 101110 98
2005-04-13 07:17:57 51°15.451 2°50.45 5.1 66 9.2 101110 98
2005-04-13 07:18:00 51°15.451 2°50.449 4.7 70 9.3 101110 98
2005-04-13 07:18:07 51°15.451 2°50.448 5.3 67 9.3 101110 98
2005-04-13 07:18:11 51°15.451 2°50.448 5.4 68 9.3 101110 98
2005-04-13 07:18:17 51°15.451 2°50.447 5.3 67 9.3 101110 98
2005-04-13 07:18:21 51°15.451 2°50.446 5 67 9.3 101110 98
2005-04-13 07:18:27 51°15.451 2°50.445 5.1 67 9.3 101110 98
2005-04-13 07:18:31 51°15.451 2°50.444 5.8 66 9.2 101110 98
2005-04-13 07:18:37 51°15.451 2°50.443 6 62 9.2 101110 98
2005-04-13 07:18:43 51°15.451 2°50.442 3.3 67 9.2 101110 98
2005-04-13 07:18:47 51°15.451 2°50.442 4.7 71 9.3 101110 98
2005-04-13 07:18:52 51°15.451 2°50.441 2.6 68 9.3 101110 98
2005-04-13 07:18:57 51°15.451 2°50.44 4.7 69 9.3 101110 98
2005-04-13 07:19:01 51°15.451 2°50.44 4.9 73 9.3 101110 98
2005-04-13 07:19:07 51°15.451 2°50.438 4.7 71 9.3 101110 98
2005-04-13 07:19:11 51°15.451 2°50.438 4.6 71 9.3 101100 98
2005-04-13 07:19:17 51°15.451 2°50.437 4.5 69 9.3 101100 98
2005-04-13 07:19:22 51°15.451 2°50.436 4.7 73 9.3 101100 98
2005-04-13 07:19:27 51°15.452 2°50.435 4.9 70 9.2 101110 98
2005-04-13 07:19:32 51°15.451 2°50.435 4.6 72 9.3 101110 98
2005-04-13 07:19:37 51°15.452 2°50.433 5.2 71 9.3 101110 98
2005-04-13 07:19:41 51°15.452 2°50.433 4.7 76 9.3 101110 98
2005-04-13 07:19:47 51°15.452 2°50.432 5.6 75 9.3 101110 98
2005-04-13 07:19:51 51°15.452 2°50.431 4.8 74 9.2 101100 98
2005-04-13 07:19:56 51°15.452 2°50.43 4.9 70 9.2 101100 98
2005-04-13 07:20:02 51°15.452 2°50.429 4.8 72 9.2 101100 98
2005-04-13 07:20:07 51°15.452 2°50.429 4.5 70 9.2 101100 98
2005-04-13 07:20:12 51°15.452 2°50.428 4.6 74 9.2 101100 98
2005-04-13 07:20:17 51°15.452 2°50.427 4.8 75 9.2 101100 98
2005-04-13 07:20:22 51°15.452 2°50.426 4.4 74 9.3 101110 98
2005-04-13 07:20:27 51°15.452 2°50.425 4.5 76 9.3 101110 98
2005-04-13 07:20:31 51°15.452 2°50.424 4.4 77 9.3 101110 98
2005-04-13 07:20:37 51°15.452 2°50.424 4.7 74 9.3 101110 98
2005-04-13 07:20:42 51°15.452 2°50.423 4.8 80 9.2 101110 98
2005-04-13 07:20:47 51°15.452 2°50.422 4.5 80 9.2 101110 98
2005-04-13 07:20:52 51°15.452 2°50.421 4.2 75 9.2 101110 98
2005-04-13 07:20:57 51°15.453 2°50.42 4.6 77 9.2 101110 98
2005-04-13 07:21:02 51°15.453 2°50.419 4.7 76 9.2 101110 98
2005-04-13 07:21:07 51°15.453 2°50.418 4.2 75 9.3 101110 98
2005-04-13 07:21:12 51°15.453 2°50.417 4.2 77 9.3 101110 98
2005-04-13 07:21:17 51°15.453 2°50.417 4.4 81 9.2 101110 98
2005-04-13 07:21:22 51°15.453 2°50.416 4.3 80 9.2 101110 98
2005-04-13 07:21:27 51°15.453 2°50.415 4.5 81 9.2 101110 98
2005-04-13 07:21:32 51°15.453 2°50.414 4.7 82 9.3 101110 98
2005-04-13 07:21:36 51°15.453 2°50.413 4.5 81 9.3 101110 98
2005-04-13 07:21:42 51°15.454 2°50.412 4.5 83 9.3 101110 98
2005-04-13 07:21:47 51°15.454 2°50.411 4.1 80 9.3 101110 98
2005-04-13 07:21:51 51°15.454 2°50.411 4.5 81 9.3 101110 98
2005-04-13 07:21:57 51°15.454 2°50.41 5.1 83 9.3 101110 98
2005-04-13 07:22:02 51°15.454 2°50.409 5.2 82 9.3 101110 98
2005-04-13 07:22:07 51°15.454 2°50.408 5 84 9.2 101100 98
2005-04-13 07:22:12 51°15.454 2°50.408 4.3 81 9.2 101110 98
2005-04-13 07:22:17 51°15.454 2°50.407 5.3 85 9.2 101110 98
2005-04-13 07:22:22 51°15.454 2°50.406 5 85 9.2 101100 98
2005-04-13 07:22:27 51°15.455 2°50.405 5 82 9.2 101100 98
2005-04-13 07:22:32 51°15.455 2°50.404 4.6 84 9.2 101100 98
2005-04-13 07:22:36 51°15.455 2°50.404 4.9 82 9.2 101110 98
2005-04-13 07:22:42 51°15.455 2°50.403 5.3 82 9.2 101110 98
2005-04-13 07:22:47 51°15.455 2°50.402 4.8 87 9.2 101110 98
2005-04-13 07:22:51 51°15.455 2°50.401 4.6 84 9.2 101110 98
2005-04-13 07:22:57 51°15.455 2°50.4 5.1 86 9.2 101110 98
2005-04-13 07:23:02 51°15.455 2°50.399 4.8 86 9.2 101110 98
2005-04-13 07:23:07 51°15.455 2°50.398 4.7 83 9.2 101110 98
2005-04-13 07:23:11 51°15.455 2°50.398 4.4 84 9.2 101110 98
2005-04-13 07:23:17 51°15.456 2°50.397 4.8 85 9.2 101110 98
2005-04-13 07:23:22 51°15.456 2°50.396 4.9 85 9.2 101110 98
2005-04-13 07:23:27 51°15.456 2°50.395 4.6 82 9.2 101110 98
2005-04-13 07:23:32 51°15.456 2°50.394 4.7 83 9.2 101110 98
2005-04-13 07:23:37 51°15.456 2°50.393 4.6 87 9.2 101110 98
2005-04-13 07:23:41 51°15.456 2°50.392 5 85 9.2 101110 98
2005-04-13 07:23:48 51°15.456 2°50.391 5.1 88 9.2 101110 98
2005-04-13 07:23:52 51°15.456 2°50.39 4.8 85 9.2 101110 98
2005-04-13 07:23:57 51°15.456 2°50.389 4.7 85 9.2 101110 98
2005-04-13 07:24:02 51°15.456 2°50.388 4.9 89 9.2 101110 98
2005-04-13 07:24:07 51°15.456 2°50.387 4.5 85 9.2 101100 98
2005-04-13 07:24:11 51°15.456 2°50.386 4.8 91 9.2 101100 98
2005-04-13 07:24:17 51°15.457 2°50.385 4.9 83 9.2 101100 98
2005-04-13 07:24:21 51°15.457 2°50.384 5.2 85 9.2 101100 98
2005-04-13 07:24:27 51°15.457 2°50.383 5.2 86 9.2 101100 98
2005-04-13 07:24:31 51°15.457 2°50.382 5.2 83 9.2 101100 98
2005-04-13 07:24:37 51°15.457 2°50.381 5.1 89 9.2 101110 98
2005-04-13 07:24:42 51°15.457 2°50.38 4.5 82 9.2 101100 98
2005-04-13 07:24:46 51°15.457 2°50.379 5.1 87 9.2 101100 98
2005-04-13 07:24:52 51°15.457 2°50.378 4.8 83 9.2 101100 98
2005-04-13 07:24:57 51°15.457 2°50.377 4.6 91 9.2 101100 98
2005-04-13 07:25:03 51°15.457 2°50.376 4.7 88 9.2 101100 98
2005-04-13 07:25:07 51°15.457 2°50.375 4.8 85 9.2 101100 98
2005-04-13 07:25:12 51°15.458 2°50.374 4.5 84 9.2 101100 98
2005-04-13 07:25:15 51°15.458 2°50.373 5 90 9.2 101110 98
2005-04-13 07:25:22 51°15.458 2°50.372 4.5 85 9.2 101100 98
2005-04-13 07:25:27 51°15.458 2°50.371 4.6 93 9.2 101100 98
2005-04-13 07:25:32 51°15.458 2°50.37 4.9 89 9.2 101100 98
2005-04-13 07:25:36 51°15.458 2°50.369 5.4 87 9.2 101100 98
2005-04-13 07:25:42 51°15.458 2°50.368 4.6 89 9.2 101100 98
2005-04-13 07:25:47 51°15.458 2°50.367 5.1 87 9.2 101100 98
2005-04-13 07:25:51 51°15.458 2°50.366 5.1 87 9.2 101100 98
2005-04-13 07:25:57 51°15.458 2°50.365 5.2 85 9.2 101100 98
2005-04-13 07:26:01 51°15.458 2°50.364 5.1 87 9.2 101100 98
2005-04-13 07:26:07 51°15.458 2°50.363 4.9 -999 9.2 101100 98
2005-04-13 07:26:12 51°15.459 2°50.362 4.7 90 9.2 101110 98
2005-04-13 07:26:16 51°15.458 2°50.361 5 88 9.2 101110 98
2005-04-13 07:26:22 51°15.458 2°50.36 4.9 83 9.2 101100 98
2005-04-13 07:26:27 51°15.458 2°50.359 5.1 91 9.2 101100 98
2005-04-13 07:26:31 51°15.459 2°50.358 5 88 9.2 101100 98
2005-04-13 07:26:36 51°15.459 2°50.357 4.9 85 9.2 101100 98
2005-04-13 07:26:41 51°15.459 2°50.356 4.8 91 9.2 101100 98
2005-04-13 07:26:47 51°15.459 2°50.355 4.8 92 9.2 101100 98
2005-04-13 07:26:52 51°15.459 2°50.354 4.9 84 9.2 101100 98
2005-04-13 07:26:57 51°15.459 2°50.353 4.4 86 9.2 101100 98
2005-04-13 07:27:01 51°15.459 2°50.352 4.4 86 9.2 101100 98
2005-04-13 07:27:07 51°15.459 2°50.351 4.4 82 9.2 101100 98
2005-04-13 07:27:11 51°15.459 2°50.35 5.2 88 9.2 101100 98
2005-04-13 07:27:17 51°15.459 2°50.348 4.7 86 9.2 101100 98
2005-04-13 07:27:22 51°15.459 2°50.347 4.9 84 9.2 101100 98
2005-04-13 07:27:27 51°15.459 2°50.346 4.7 85 9.2 101100 98
2005-04-13 07:27:32 51°15.459 2°50.345 4.9 85 9.2 101100 98
2005-04-13 07:27:37 51°15.459 2°50.344 4.7 86 9.2 101100 98
2005-04-13 07:27:42 51°15.459 2°50.343 4.7 83 9.2 101100 98
2005-04-13 07:27:47 51°15.459 2°50.342 4.9 83 9.2 101100 98
2005-04-13 07:27:52 51°15.459 2°50.341 4.9 86 9.2 101100 98
2005-04-13 07:27:56 51°15.459 2°50.34 5.1 88 9.2 101100 98
2005-04-13 07:28:02 51°15.459 2°50.339 4.8 84 9.2 101100 98
2005-04-13 07:28:07 51°15.459 2°50.338 4.6 91 9.2 101100 98
2005-04-13 07:28:11 51°15.459 2°50.337 4.8 84 9.2 101100 98
2005-04-13 07:28:17 51°15.459 2°50.336 4.4 85 9.2 101100 98
2005-04-13 07:28:21 51°15.459 2°50.335 4.7 84 9.2 101100 98
2005-04-13 07:28:27 51°15.459 2°50.334 4.2 91 9.2 101100 98
2005-04-13 07:28:32 51°15.459 2°50.333 4.4 85 9.2 101100 98
2005-04-13 07:28:37 51°15.459 2°50.332 4 83 9.2 101100 98
2005-04-13 07:28:43 51°15.459 2°50.331 4.5 84 9.2 101100 98
2005-04-13 07:28:47 51°15.459 2°50.33 4.3 81 9.2 101100 99
2005-04-13 07:28:52 51°15.459 2°50.328 4 78 9.2 101100 99
2005-04-13 07:28:57 51°15.459 2°50.328 4 80 9.2 101100 99
2005-04-13 07:29:02 51°15.459 2°50.326 3.8 79 9.2 101100 99
2005-04-13 07:29:07 51°15.46 2°50.325 3.2 -999 9.2 101100 99
2005-04-13 07:29:11 51°15.459 2°50.324 4.3 76 9.2 101100 99
2005-04-13 07:29:17 51°15.46 2°50.323 3.7 79 9.2 101100 99
2005-04-13 07:29:22 51°15.459 2°50.322 3.5 78 9.2 101100 99
2005-04-13 07:29:27 51°15.46 2°50.321 3.8 75 9.2 101100 99
2005-04-13 07:29:31 51°15.46 2°50.32 3.8 75 9.2 101100 99
2005-04-13 07:29:36 51°15.46 2°50.319 3.5 77 9.2 101100 99
2005-04-13 07:29:42 51°15.46 2°50.318 3.6 77 9.2 101100 99
2005-04-13 07:29:47 51°15.46 2°50.317 3.8 80 9.2 101100 99
2005-04-13 07:29:51 51°15.46 2°50.316 3.9 80 9.2 101100 99
2005-04-13 07:29:57 51°15.46 2°50.315 3.6 79 9.2 101100 99
2005-04-13 07:30:03 51°15.46 2°50.313 3.4 77 9.2 101100 99
2005-04-13 07:30:07 51°15.46 2°50.312 3.7 -999 9.2 101100 99
2005-04-13 07:30:12 51°15.46 2°50.311 3.5 73 9.2 101100 99
2005-04-13 07:30:17 51°15.46 2°50.31 3.9 77 9.2 101100 99
2005-04-13 07:30:22 51°15.46 2°50.309 3.8 78 9.2 101100 99
2005-04-13 07:30:27 51°15.46 2°50.308 4 75 9.2 101100 99
2005-04-13 07:30:32 51°15.46 2°50.307 3.9 78 9.2 101100 99
2005-04-13 07:30:37 51°15.46 2°50.306 4.1 82 9.2 101100 99
2005-04-13 07:30:42 51°15.46 2°50.305 4 81 9.2 101100 99
2005-04-13 07:30:47 51°15.46 2°50.304 4.1 80 9.2 101100 99
2005-04-13 07:30:52 51°15.461 2°50.302 4.5 82 9.2 101100 99
2005-04-13 07:30:57 51°15.461 2°50.301 4.1 79 9.2 101100 99
2005-04-13 07:31:01 51°15.461 2°50.301 4 79 9.2 101100 99
2005-04-13 07:31:07 51°15.461 2°50.299 3.9 80 9.2 101100 99
2005-04-13 07:31:11 51°15.461 2°50.298 3.8 80 9.2 101100 99
2005-04-13 07:31:17 51°15.461 2°50.297 3.8 79 9.2 101100 99
2005-04-13 07:31:21 51°15.462 2°50.296 4 79 9.2 101100 99
2005-04-13 07:31:27 51°15.462 2°50.294 4.2 82 9.2 101100 99
2005-04-13 07:31:31 51°15.462 2°50.293 4.2 83 9.2 101100 99
2005-04-13 07:31:37 51°15.462 2°50.292 3.5 82 9.2 101100 99
2005-04-13 07:31:42 51°15.462 2°50.291 3.7 81 9.2 101100 99
2005-04-13 07:31:47 51°15.462 2°50.29 3.7 81 9.2 101100 99
2005-04-13 07:31:52 51°15.462 2°50.289 4 82 9.2 101100 99
2005-04-13 07:31:57 51°15.462 2°50.288 3.9 81 9.2 101090 99
2005-04-13 07:32:01 51°15.462 2°50.287 4.1 86 9.2 101090 99
2005-04-13 07:32:06 51°15.463 2°50.286 3.8 82 9.2 101090 99
2005-04-13 07:32:12 51°15.463 2°50.284 4.2 83 9.2 101090 99
2005-04-13 07:32:17 51°15.463 2°50.283 4.2 85 9.2 101090 99
2005-04-13 07:32:22 51°15.463 2°50.282 4 92 9.2 101090 99
2005-04-13 07:32:27 51°15.463 2°50.281 4.2 89 9.2 101090 99
2005-04-13 07:32:32 51°15.463 2°50.28 4.2 88 9.2 101090 99
2005-04-13 07:32:37 51°15.463 2°50.279 4.1 86 9.2 101090 99
2005-04-13 07:32:41 51°15.463 2°50.278 4 87 9.2 101090 99
2005-04-13 07:32:47 51°15.463 2°50.276 4.4 85 9.2 101100 99
2005-04-13 07:32:52 51°15.463 2°50.275 4.3 87 9.2 101090 99
2005-04-13 07:32:57 51°15.463 2°50.274 4.2 90 9.2 101090 99
2005-04-13 07:33:02 51°15.463 2°50.273 4.2 84 9.2 101090 99
2005-04-13 07:33:07 51°15.463 2°50.272 4.3 84 9.2 101090 99
2005-04-13 07:33:12 51°15.463 2°50.27 4.6 85 9.2 101090 99
2005-04-13 07:33:17 51°15.463 2°50.27 3.9 82 9.2 101090 99
2005-04-13 07:33:21 51°15.463 2°50.268 4.2 92 9.2 101090 99
2005-04-13 07:33:27 51°15.463 2°50.267 4.3 86 9.2 101090 99
2005-04-13 07:33:32 51°15.463 2°50.266 4.6 92 9.2 101100 99
2005-04-13 07:33:37 51°15.463 2°50.265 4.3 85 9.2 101100 99
2005-04-13 07:33:42 51°15.463 2°50.264 4.4 85 9.2 101090 99
2005-04-13 07:33:47 51°15.463 2°50.263 4.7 84 9.2 101090 99
2005-04-13 07:33:51 51°15.463 2°50.262 5.3 85 9.2 101090 99
2005-04-13 07:33:57 51°15.463 2°50.26 5.6 86 9.2 101090 99
2005-04-13 07:34:02 51°15.463 2°50.259 5.2 88 9.2 101090 99
2005-04-13 07:34:07 51°15.463 2°50.258 4.7 86 9.2 101090 99
2005-04-13 07:34:12 51°15.463 2°50.257 4.5 89 9.2 101090 99
2005-04-13 07:34:16 51°15.463 2°50.256 4.9 90 9.2 101100 99
2005-04-13 07:34:22 51°15.463 2°50.255 4.8 94 9.2 101090 99
2005-04-13 07:34:27 51°15.463 2°50.254 4.8 89 9.2 101090 99
2005-04-13 07:34:31 51°15.463 2°50.253 5 88 9.2 101090 99
2005-04-13 07:34:35 51°15.463 2°50.252 4.9 90 9.2 101100 99
2005-04-13 07:34:42 51°15.463 2°50.251 4.9 89 9.2 101100 99
2005-04-13 07:34:47 51°15.463 2°50.249 5 91 9.2 101090 99
2005-04-13 07:34:52 51°15.463 2°50.249 4.9 91 9.2 101100 99
2005-04-13 07:34:57 51°15.463 2°50.247 5.3 90 9.2 101100 99
2005-04-13 07:35:01 51°15.463 2°50.247 4.9 91 9.2 101100 99
2005-04-13 07:35:07 51°15.463 2°50.245 5.4 88 9.2 101100 99
2005-04-13 07:35:12 51°15.462 2°50.244 5.3 89 9.2 101100 99
2005-04-13 07:35:17 51°15.462 2°50.243 5.3 87 9.2 101100 99
2005-04-13 07:35:22 51°15.462 2°50.242 5.2 85 9.2 101100 99
2005-04-13 07:35:27 51°15.462 2°50.241 5.2 86 9.2 101100 99
2005-04-13 07:35:32 51°15.462 2°50.24 5 86 9.2 101100 99
2005-04-13 07:35:37 51°15.462 2°50.239 5.2 86 9.2 101100 99
2005-04-13 07:35:42 51°15.462 2°50.237 4.7 87 9.2 101100 99
2005-04-13 07:35:47 51°15.462 2°50.236 4.9 86 9.2 101100 99
2005-04-13 07:35:51 51°15.462 2°50.235 4.6 83 9.2 101100 99
2005-04-13 07:35:56 51°15.461 2°50.235 4.7 87 9.2 101100 99
2005-04-13 07:36:00 51°15.461 2°50.234 4.6 83 9.3 101100 99
2005-04-13 07:36:07 51°15.461 2°50.232 4.8 86 9.3 101100 99
2005-04-13 07:36:11 51°15.461 2°50.232 4.6 88 9.3 101100 99
2005-04-13 07:36:16 51°15.461 2°50.231 4.1 86 9.2 101100 99
2005-04-13 07:36:22 51°15.46 2°50.23 4 88 9.3 101100 99
2005-04-13 07:36:27 51°15.46 2°50.229 4.2 82 9.3 101100 99
2005-04-13 07:36:32 51°15.46 2°50.228 4.2 82 9.3 101100 99
2005-04-13 07:36:37 51°15.459 2°50.226 4.2 88 9.3 101100 99
2005-04-13 07:36:42 51°15.459 2°50.225 4 83 9.3 101100 99
2005-04-13 07:36:47 51°15.459 2°50.224 3.7 78 9.3 101100 99
2005-04-13 07:36:51 51°15.459 2°50.223 4 83 9.3 101100 99
2005-04-13 07:36:57 51°15.458 2°50.222 4.2 86 9.3 101100 99
2005-04-13 07:37:02 51°15.458 2°50.221 4.2 83 9.3 101100 99
2005-04-13 07:37:07 51°15.458 2°50.22 3.1 78 9.2 101100 99
2005-04-13 07:37:12 51°15.458 2°50.219 3.1 81 9.3 101100 99
2005-04-13 07:37:17 51°15.457 2°50.217 4 82 9.3 101100 99
2005-04-13 07:37:21 51°15.457 2°50.217 4.2 84 9.3 101100 99
2005-04-13 07:37:27 51°15.457 2°50.215 4.4 80 9.2 101100 99
2005-04-13 07:37:32 51°15.457 2°50.214 4.1 75 9.3 101090 99
2005-04-13 07:37:37 51°15.456 2°50.213 3.9 78 9.3 101090 99
2005-04-13 07:37:41 51°15.456 2°50.212 4.7 87 9.3 101090 99
2005-04-13 07:37:46 51°15.456 2°50.211 4.6 84 9.3 101090 99
2005-04-13 07:37:51 51°15.455 2°50.211 4 80 9.3 101100 99
2005-04-13 07:37:57 51°15.453 2°50.21 3.6 76 9.3 101100 99
2005-04-13 07:38:01 51°15.451 2°50.211 4.8 82 9.3 101100 99
2005-04-13 07:38:07 51°15.448 2°50.211 3.6 77 9.3 101100 99
2005-04-13 07:38:12 51°15.445 2°50.212 4.7 65 9.3 101100 99
2005-04-13 07:38:17 51°15.442 2°50.212 3.8 72 9.3 101100 99
2005-04-13 07:38:22 51°15.438 2°50.213 4.7 65 9.3 101100 99
2005-04-13 07:38:27 51°15.434 2°50.214 4.6 63 9.3 101100 99
2005-04-13 07:38:32 51°15.43 2°50.214 5 62 9.3 101100 99
2005-04-13 07:38:37 51°15.426 2°50.215 5 56 9.3 101090 99
2005-04-13 07:38:42 51°15.421 2°50.215 5.2 60 9.3 101100 99
2005-04-13 07:38:47 51°15.417 2°50.216 5.1 55 9.3 101100 99
2005-04-13 07:38:52 51°15.412 2°50.216 5.7 55 9.3 101090 99
2005-04-13 07:38:56 51°15.408 2°50.216 5 42 9.3 101090 99
2005-04-13 07:39:02 51°15.401 2°50.216 5.5 49 9.3 101090 99
2005-04-13 07:39:07 51°15.396 2°50.215 5.7 42 9.3 101090 99
2005-04-13 07:39:12 51°15.39 2°50.214 5.6 45 9.3 101090 99
2005-04-13 07:39:17 51°15.385 2°50.213 6.1 40 9.3 101090 99
2005-04-13 07:39:21 51°15.381 2°50.212 6.2 33 9.3 101090 99
2005-04-13 07:39:27 51°15.374 2°50.209 6.5 33 9.3 101100 99
2005-04-13 07:39:31 51°15.369 2°50.206 6.5 37 9.3 101090 99
2005-04-13 07:39:36 51°15.363 2°50.203 6.5 34 9.3 101090 99
2005-04-13 07:39:41 51°15.358 2°50.199 6.7 27 9.3 101090 99
2005-04-13 07:39:47 51°15.351 2°50.194 6.9 20 9.3 101090 99
2005-04-13 07:39:52 51°15.345 2°50.189 6.8 22 9.3 101090 99
2005-04-13 07:39:57 51°15.34 2°50.184 6.8 21 9.3 101090 99
2005-04-13 07:40:02 51°15.334 2°50.178 6.6 21 9.3 101090 99
2005-04-13 07:40:07 51°15.329 2°50.172 6.7 14 9.3 101100 99
2005-04-13 07:40:12 51°15.323 2°50.166 6.4 20 9.3 101090 99
2005-04-13 07:40:17 51°15.319 2°50.16 6.5 15 9.3 101090 99
2005-04-13 07:40:22 51°15.314 2°50.153 6.4 12 9.3 101090 99
2005-04-13 07:40:27 51°15.309 2°50.145 5.7 13 9.3 101090 99
2005-04-13 07:40:31 51°15.305 2°50.139 6 18 9.3 101090 99
2005-04-13 07:40:36 51°15.3 2°50.132 6.4 8 9.3 101090 99
2005-04-13 07:40:42 51°15.295 2°50.123 6.2 10 9.3 101090 99
2005-04-13 07:40:47 51°15.291 2°50.116 6.6 4 9.3 101090 99
2005-04-13 07:40:52 51°15.287 2°50.108 6.7 4 9.3 101090 99
2005-04-13 07:40:57 51°15.282 2°50.098 6.4 14 9.3 101090 99
2005-04-13 07:41:01 51°15.279 2°50.093 6.2 10 9.3 101090 99
2005-04-13 07:41:07 51°15.274 2°50.082 6.1 8 9.3 101090 99
2005-04-13 07:41:12 51°15.27 2°50.073 6.3 9 9.3 101090 99
2005-04-13 07:41:17 51°15.266 2°50.066 6.3 7 9.3 101090 99
2005-04-13 07:41:22 51°15.262 2°50.056 6.5 8 9.3 101090 99
2005-04-13 07:41:27 51°15.258 2°50.047 7.1 358 9.3 101090 99
2005-04-13 07:41:32 51°15.254 2°50.039 6.8 6 9.3 101090 99
2005-04-13 07:41:36 51°15.251 2°50.031 6.4 -999 9.3 101090 99
2005-04-13 07:41:41 51°15.247 2°50.023 6.9 3 9.3 101090 99
2005-04-13 07:41:47 51°15.243 2°50.013 6.2 355 9.3 101090 99
2005-04-13 07:41:52 51°15.24 2°50.003 6.1 355 9.3 101090 99
2005-04-13 07:41:57 51°15.237 2°49.995 5.8 354 9.3 101090 99
2005-04-13 07:42:02 51°15.234 2°49.986 6.7 352 9.3 101090 99
2005-04-13 07:42:07 51°15.231 2°49.977 6.1 353 9.3 101090 99
2005-04-13 07:42:12 51°15.229 2°49.969 7.2 342 9.3 101090 99
2005-04-13 07:42:17 51°15.227 2°49.961 5.7 344 9.3 101090 99
2005-04-13 07:42:22 51°15.225 2°49.952 5.9 345 9.3 101090 99
2005-04-13 07:42:27 51°15.223 2°49.944 6.5 339 9.3 101090 99
2005-04-13 07:42:32 51°15.221 2°49.934 6.7 335 9.3 101080 99
2005-04-13 07:42:36 51°15.22 2°49.927 6.5 336 9.3 101080 99
2005-04-13 07:42:41 51°15.218 2°49.918 7.7 335 9.3 101090 100
2005-04-13 07:42:47 51°15.217 2°49.908 6.5 328 9.3 101090 100
2005-04-13 07:42:52 51°15.216 2°49.901 6.5 327 9.3 101090 100
2005-04-13 07:42:57 51°15.214 2°49.892 7.2 329 9.3 101090 100
2005-04-13 07:43:02 51°15.214 2°49.883 7.2 326 9.3 101080 100
2005-04-13 07:43:07 51°15.213 2°49.874 7.2 325 9.3 101080 100
2005-04-13 07:43:12 51°15.212 2°49.867 6.4 325 9.3 101080 100
2005-04-13 07:43:17 51°15.212 2°49.858 6.4 322 9.3 101080 100
2005-04-13 07:43:21 51°15.211 2°49.852 7.1 321 9.3 101080 100
2005-04-13 07:43:27 51°15.211 2°49.841 6.9 318 9.3 101080 100
2005-04-13 07:43:31 51°15.211 2°49.835 6.5 318 9.3 101080 100
2005-04-13 07:43:37 51°15.21 2°49.826 7.2 317 9.3 101080 100
2005-04-13 07:43:42 51°15.21 2°49.817 7.4 227 9.3 101080 100
2005-04-13 07:43:47 51°15.21 2°49.809 6.3 314 9.3 101080 100
2005-04-13 07:43:51 51°15.21 2°49.802 6.1 313 9.3 101080 100
2005-04-13 07:43:57 51°15.21 2°49.793 7.2 311 9.3 101080 100
2005-04-13 07:44:01 51°15.211 2°49.787 7.9 315 9.3 101080 100
2005-04-13 07:44:07 51°15.211 2°49.777 8.1 310 9.3 101080 100
2005-04-13 07:44:12 51°15.212 2°49.769 7.2 302 9.3 101080 100
2005-04-13 07:44:17 51°15.213 2°49.761 7.5 294 9.3 101080 100
2005-04-13 07:44:22 51°15.213 2°49.753 7.8 300 9.3 101080 100
2005-04-13 07:44:27 51°15.214 2°49.746 7.9 302 9.3 101080 100
2005-04-13 07:44:31 51°15.215 2°49.74 7.5 300 9.3 101080 100
2005-04-13 07:44:37 51°15.216 2°49.731 8.5 293 9.3 101080 100
2005-04-13 07:44:42 51°15.218 2°49.723 7.9 287 9.3 101080 100
2005-04-13 07:44:47 51°15.219 2°49.716 7 290 9.3 101080 100
2005-04-13 07:44:52 51°15.221 2°49.708 7.7 282 9.3 101080 100
2005-04-13 07:44:56 51°15.222 2°49.703 9.9 282 9.3 101080 100
2005-04-13 07:45:02 51°15.225 2°49.694 9.4 282 9.3 101080 100
2005-04-13 07:45:07 51°15.226 2°49.688 10.5 271 9.3 101080 100
2005-04-13 07:45:11 51°15.228 2°49.682 9.5 269 9.3 101070 100
2005-04-13 07:45:17 51°15.231 2°49.675 10.6 270 9.3 101070 100
2005-04-13 07:45:23 51°15.234 2°49.668 8.9 268 9.3 101070 100
2005-04-13 07:45:27 51°15.236 2°49.662 8.4 265 9.3 101070 100
2005-04-13 07:45:31 51°15.238 2°49.658 7.3 263 9.3 101070 100
2005-04-13 07:45:37 51°15.241 2°49.651 5.8 257 9.3 101070 100
2005-04-13 07:45:41 51°15.243 2°49.647 6.3 257 9.3 101080 100
2005-04-13 07:45:47 51°15.247 2°49.64 6.6 254 9.3 101080 100
2005-04-13 07:45:52 51°15.25 2°49.635 6.7 252 9.3 101070 100
2005-04-13 07:45:56 51°15.253 2°49.631 7 254 9.3 101070 100
2005-04-13 07:46:01 51°15.256 2°49.627 8.3 243 9.3 101070 100
2005-04-13 07:46:07 51°15.26 2°49.622 7.3 246 9.3 101070 100
2005-04-13 07:46:11 51°15.263 2°49.618 8 248 9.3 101080 100
2005-04-13 07:46:16 51°15.266 2°49.614 7.2 249 9.3 101080 100
2005-04-13 07:46:22 51°15.27 2°49.609 7.7 244 9.3 101080 100
2005-04-13 07:46:27 51°15.274 2°49.605 7.6 239 9.3 101080 100
2005-04-13 07:46:32 51°15.277 2°49.602 8.2 242 9.3 101080 100
2005-04-13 07:46:37 51°15.28 2°49.599 8.2 236 9.3 101080 100
2005-04-13 07:46:41 51°15.283 2°49.596 8.1 237 9.3 101080 100
2005-04-13 07:46:47 51°15.287 2°49.593 7.1 236 9.3 101080 100
2005-04-13 07:46:52 51°15.291 2°49.59 7.4 233 9.3 101080 100
2005-04-13 07:46:57 51°15.294 2°49.587 7.5 230 9.3 101080 100
2005-04-13 07:47:02 51°15.298 2°49.585 6.8 229 9.3 101080 100
2005-04-13 07:47:07 51°15.302 2°49.583 6.8 225 9.3 101080 100
2005-04-13 07:47:12 51°15.306 2°49.581 7.1 220 9.3 101070 100
2005-04-13 07:47:17 51°15.309 2°49.58 7.4 221 9.3 101070 100
2005-04-13 07:47:20 51°15.311 2°49.579 7 218 9.3 101080 100
2005-04-13 07:47:27 51°15.316 2°49.577 6.9 214 9.3 101080 100
2005-04-13 07:47:32 51°15.319 2°49.576 6.5 215 9.3 101080 100
2005-04-13 07:47:36 51°15.322 2°49.575 5.4 208 9.3 101090 100
2005-04-13 07:47:42 51°15.326 2°49.575 4.7 205 9.3 101080 100
2005-04-13 07:47:47 51°15.329 2°49.575 5.9 200 9.3 101080 100
2005-04-13 07:47:52 51°15.333 2°49.575 5.2 197 9.3 101080 100
2005-04-13 07:47:57 51°15.336 2°49.575 4.8 192 9.3 101080 100
2005-04-13 07:48:01 51°15.339 2°49.575 3.8 191 9.3 101090 100
2005-04-13 07:48:07 51°15.343 2°49.576 4.2 187 9.3 101090 100
2005-04-13 07:48:12 51°15.346 2°49.577 3.9 182 9.3 101080 100
2005-04-13 07:48:17 51°15.349 2°49.578 5.3 178 9.3 101080 100
2005-04-13 07:48:22 51°15.352 2°49.58 6.5 175 9.4 101080 100
2005-04-13 07:48:27 51°15.354 2°49.581 5.8 168 9.4 101080 100
2005-04-13 07:48:31 51°15.357 2°49.583 6 166 9.4 101090 100
2005-04-13 07:48:36 51°15.359 2°49.585 6.6 162 9.4 101090 100
2005-04-13 07:48:41 51°15.362 2°49.587 6.7 160 9.4 101090 100
2005-04-13 07:48:47 51°15.365 2°49.59 6.1 157 9.4 101090 100
2005-04-13 07:48:51 51°15.366 2°49.592 6.3 152 9.4 101090 100
2005-04-13 07:48:57 51°15.369 2°49.596 6.4 152 9.4 101090 100
2005-04-13 07:49:02 51°15.371 2°49.599 6.7 150 9.4 101090 100
2005-04-13 07:49:07 51°15.373 2°49.602 6.2 144 9.4 101090 100
2005-04-13 07:49:12 51°15.375 2°49.605 6.6 146 9.4 101080 100
2005-04-13 07:49:16 51°15.376 2°49.608 6.3 140 9.4 101080 100
2005-04-13 07:49:22 51°15.377 2°49.611 6.7 136 9.4 101080 100
2005-04-13 07:49:27 51°15.378 2°49.615 6.3 137 9.4 101080 100
2005-04-13 07:49:32 51°15.379 2°49.619 6.2 133 9.4 101080 100
2005-04-13 07:49:37 51°15.38 2°49.623 6.3 131 9.4 101080 100
2005-04-13 07:49:41 51°15.381 2°49.626 6.7 127 9.4 101080 100
2005-04-13 07:49:47 51°15.382 2°49.631 6.2 127 9.3 101090 100
2005-04-13 07:49:52 51°15.382 2°49.634 6.2 122 9.4 101080 100
2005-04-13 07:49:57 51°15.382 2°49.638 6.5 123 9.4 101080 100
2005-04-13 07:50:01 51°15.383 2°49.642 5.7 120 9.3 101080 100
2005-04-13 07:50:07 51°15.383 2°49.647 5.9 123 9.3 101080 100
2005-04-13 07:50:11 51°15.383 2°49.65 6.1 117 9.3 101080 100
2005-04-13 07:50:17 51°15.382 2°49.654 6.6 115 9.3 101090 100
2005-04-13 07:50:22 51°15.382 2°49.657 6.3 117 9.3 101090 100
2005-04-13 07:50:27 51°15.382 2°49.66 6.3 115 9.3 101090 100
2005-04-13 07:50:31 51°15.382 2°49.662 6.2 116 9.3 101090 100
2005-04-13 07:50:36 51°15.381 2°49.665 6.4 112 9.3 101090 100
2005-04-13 07:50:42 51°15.381 2°49.669 6.4 114 9.3 101090 100
2005-04-13 07:50:47 51°15.38 2°49.671 6.7 111 9.3 101090 100
2005-04-13 07:50:51 51°15.379 2°49.673 6.5 106 9.3 101090 100
2005-04-13 07:50:57 51°15.379 2°49.676 6.5 110 9.3 101090 100
2005-04-13 07:51:02 51°15.378 2°49.677 6.3 110 9.3 101090 100
2005-04-13 07:51:06 51°15.378 2°49.679 6.2 113 9.3 101090 100
2005-04-13 07:51:11 51°15.377 2°49.681 6.3 105 9.3 101090 100
2005-04-13 07:51:17 51°15.376 2°49.683 6.6 110 9.3 101090 100
2005-04-13 07:51:22 51°15.375 2°49.685 5.9 104 9.3 101090 100
2005-04-13 07:51:27 51°15.374 2°49.687 6.3 107 9.3 101090 100
2005-04-13 07:51:31 51°15.373 2°49.688 6.5 105 9.3 101090 100
2005-04-13 07:51:37 51°15.372 2°49.689 6 103 9.3 101090 100
2005-04-13 07:51:42 51°15.371 2°49.691 6.2 102 9.3 101090 100
2005-04-13 07:51:47 51°15.37 2°49.692 6.4 103 9.3 101090 100
2005-04-13 07:51:52 51°15.369 2°49.693 6 103 9.3 101090 100
2005-04-13 07:51:56 51°15.369 2°49.694 6.1 102 9.3 101090 100
2005-04-13 07:52:01 51°15.368 2°49.695 6.2 98 9.3 101090 100
2005-04-13 07:52:07 51°15.367 2°49.696 6.1 100 9.3 101090 100
2005-04-13 07:52:12 51°15.366 2°49.697 5.9 99 9.3 101090 100
2005-04-13 07:52:16 51°15.365 2°49.697 5.8 101 9.3 101090 100
2005-04-13 07:52:22 51°15.364 2°49.698 5.7 101 9.3 101090 100
2005-04-13 07:52:27 51°15.363 2°49.699 6.2 101 9.3 101090 100
2005-04-13 07:52:32 51°15.362 2°49.7 5.9 100 9.3 101090 100
2005-04-13 07:52:37 51°15.362 2°49.7 5.6 98 9.3 101090 100
2005-04-13 07:52:42 51°15.361 2°49.7 5.8 99 9.3 101090 100
2005-04-13 07:52:47 51°15.36 2°49.701 5.3 100 9.3 101090 100
2005-04-13 07:52:52 51°15.359 2°49.701 5.5 99 9.3 101090 100
2005-04-13 07:52:57 51°15.359 2°49.702 5.7 97 9.3 101090 100
2005-04-13 07:53:02 51°15.358 2°49.702 5.5 94 9.3 101090 100
2005-04-13 07:53:07 51°15.357 2°49.702 5.9 -999 9.3 101090 100
2005-04-13 07:53:12 51°15.356 2°49.703 5.6 98 9.3 101090 100
2005-04-13 07:53:17 51°15.356 2°49.703 5.7 97 9.3 101090 100
2005-04-13 07:53:21 51°15.355 2°49.703 5.2 96 9.3 101090 100
2005-04-13 07:53:27 51°15.354 2°49.703 6 92 9.3 101090 100
2005-04-13 07:53:32 51°15.353 2°49.703 5.2 96 9.3 101080 100
2005-04-13 07:53:37 51°15.353 2°49.704 5.6 92 9.3 101080 100
2005-04-13 07:53:42 51°15.352 2°49.703 5.7 94 9.3 101090 100
2005-04-13 07:53:47 51°15.351 2°49.703 5.6 93 9.3 101090 100
2005-04-13 07:53:52 51°15.351 2°49.703 5.7 92 9.3 101080 100
2005-04-13 07:53:57 51°15.35 2°49.703 5.4 95 9.3 101080 100
2005-04-13 07:54:01 51°15.349 2°49.703 5.8 90 9.3 101090 100
2005-04-13 07:54:07 51°15.349 2°49.703 5.6 91 9.3 101090 100
2005-04-13 07:54:12 51°15.348 2°49.703 5.4 92 9.3 101090 100
2005-04-13 07:54:17 51°15.347 2°49.702 5.3 94 9.3 101090 100